locationName,lineName,date,time,countIn,countOut
��Ƃ�̍L��,�C�ݕ���,2022/4/1,0:00,5,2
��Ƃ�̍L��,�C�ݕ���,2022/4/1,1:00,0,3
��Ƃ�̍L��,�C�ݕ���,2022/4/1,2:00,0,0
��Ƃ�̍L��,�C�ݕ���,2022/4/1,3:00,1,1
��Ƃ�̍L��,�C�ݕ���,2022/4/1,4:00,4,5
��Ƃ�̍L��,�C�ݕ���,2022/4/1,5:00,2,3
��Ƃ�̍L��,�C�ݕ���,2022/4/1,6:00,14,16
��Ƃ�̍L��,�C�ݕ���,2022/4/1,7:00,16,49
��Ƃ�̍L��,�C�ݕ���,2022/4/1,8:00,29,86
��Ƃ�̍L��,�C�ݕ���,2022/4/1,9:00,93,62
��Ƃ�̍L��,�C�ݕ���,2022/4/1,10:00,118,57
��Ƃ�̍L��,�C�ݕ���,2022/4/1,11:00,164,105
��Ƃ�̍L��,�C�ݕ���,2022/4/1,12:00,154,90
��Ƃ�̍L��,�C�ݕ���,2022/4/1,13:00,158,104
��Ƃ�̍L��,�C�ݕ���,2022/4/1,14:00,153,100
��Ƃ�̍L��,�C�ݕ���,2022/4/1,15:00,131,83
��Ƃ�̍L��,�C�ݕ���,2022/4/1,16:00,114,115
��Ƃ�̍L��,�C�ݕ���,2022/4/1,17:00,77,84
��Ƃ�̍L��,�C�ݕ���,2022/4/1,18:00,59,102
��Ƃ�̍L��,�C�ݕ���,2022/4/1,19:00,34,46
��Ƃ�̍L��,�C�ݕ���,2022/4/1,20:00,21,31
��Ƃ�̍L��,�C�ݕ���,2022/4/1,21:00,26,46
��Ƃ�̍L��,�C�ݕ���,2022/4/1,22:00,15,21
��Ƃ�̍L��,�C�ݕ���,2022/4/1,23:00,13,15
��Ƃ�̍L��,�C�ݕ���,2022/4/2,0:00,7,9
��Ƃ�̍L��,�C�ݕ���,2022/4/2,1:00,5,6
��Ƃ�̍L��,�C�ݕ���,2022/4/2,2:00,0,3
��Ƃ�̍L��,�C�ݕ���,2022/4/2,3:00,1,1
��Ƃ�̍L��,�C�ݕ���,2022/4/2,4:00,2,7
��Ƃ�̍L��,�C�ݕ���,2022/4/2,5:00,4,9
��Ƃ�̍L��,�C�ݕ���,2022/4/2,6:00,9,10
��Ƃ�̍L��,�C�ݕ���,2022/4/2,7:00,14,28
��Ƃ�̍L��,�C�ݕ���,2022/4/2,8:00,34,49
��Ƃ�̍L��,�C�ݕ���,2022/4/2,9:00,107,83
��Ƃ�̍L��,�C�ݕ���,2022/4/2,10:00,166,130
��Ƃ�̍L��,�C�ݕ���,2022/4/2,11:00,236,170
��Ƃ�̍L��,�C�ݕ���,2022/4/2,12:00,272,165
��Ƃ�̍L��,�C�ݕ���,2022/4/2,13:00,316,193
��Ƃ�̍L��,�C�ݕ���,2022/4/2,14:00,303,162
��Ƃ�̍L��,�C�ݕ���,2022/4/2,15:00,273,198
��Ƃ�̍L��,�C�ݕ���,2022/4/2,16:00,162,147
��Ƃ�̍L��,�C�ݕ���,2022/4/2,17:00,130,160
��Ƃ�̍L��,�C�ݕ���,2022/4/2,18:00,106,141
��Ƃ�̍L��,�C�ݕ���,2022/4/2,19:00,65,81
��Ƃ�̍L��,�C�ݕ���,2022/4/2,20:00,35,71
��Ƃ�̍L��,�C�ݕ���,2022/4/2,21:00,30,53
��Ƃ�̍L��,�C�ݕ���,2022/4/2,22:00,14,25
��Ƃ�̍L��,�C�ݕ���,2022/4/2,23:00,11,6
��Ƃ�̍L��,�C�ݕ���,2022/4/3,0:00,6,12
��Ƃ�̍L��,�C�ݕ���,2022/4/3,1:00,2,4
��Ƃ�̍L��,�C�ݕ���,2022/4/3,2:00,2,3
��Ƃ�̍L��,�C�ݕ���,2022/4/3,3:00,3,1
��Ƃ�̍L��,�C�ݕ���,2022/4/3,4:00,2,3
��Ƃ�̍L��,�C�ݕ���,2022/4/3,5:00,5,6
��Ƃ�̍L��,�C�ݕ���,2022/4/3,6:00,5,11
��Ƃ�̍L��,�C�ݕ���,2022/4/3,7:00,19,34
��Ƃ�̍L��,�C�ݕ���,2022/4/3,8:00,61,47
��Ƃ�̍L��,�C�ݕ���,2022/4/3,9:00,157,47
��Ƃ�̍L��,�C�ݕ���,2022/4/3,10:00,206,91
��Ƃ�̍L��,�C�ݕ���,2022/4/3,11:00,207,174
��Ƃ�̍L��,�C�ݕ���,2022/4/3,12:00,259,159
��Ƃ�̍L��,�C�ݕ���,2022/4/3,13:00,254,141
��Ƃ�̍L��,�C�ݕ���,2022/4/3,14:00,218,167
��Ƃ�̍L��,�C�ݕ���,2022/4/3,15:00,252,172
��Ƃ�̍L��,�C�ݕ���,2022/4/3,16:00,213,172
��Ƃ�̍L��,�C�ݕ���,2022/4/3,17:00,127,135
��Ƃ�̍L��,�C�ݕ���,2022/4/3,18:00,83,116
��Ƃ�̍L��,�C�ݕ���,2022/4/3,19:00,29,68
��Ƃ�̍L��,�C�ݕ���,2022/4/3,20:00,18,19
��Ƃ�̍L��,�C�ݕ���,2022/4/3,21:00,16,18
��Ƃ�̍L��,�C�ݕ���,2022/4/3,22:00,12,8
��Ƃ�̍L��,�C�ݕ���,2022/4/3,23:00,4,2
��Ƃ�̍L��,�C�ݕ���,2022/4/4,0:00,2,3
��Ƃ�̍L��,�C�ݕ���,2022/4/4,1:00,3,3
��Ƃ�̍L��,�C�ݕ���,2022/4/4,2:00,2,2
��Ƃ�̍L��,�C�ݕ���,2022/4/4,3:00,0,0
��Ƃ�̍L��,�C�ݕ���,2022/4/4,4:00,4,3
��Ƃ�̍L��,�C�ݕ���,2022/4/4,5:00,3,3
��Ƃ�̍L��,�C�ݕ���,2022/4/4,6:00,12,12
��Ƃ�̍L��,�C�ݕ���,2022/4/4,7:00,6,40
��Ƃ�̍L��,�C�ݕ���,2022/4/4,8:00,26,62
��Ƃ�̍L��,�C�ݕ���,2022/4/4,9:00,78,26
��Ƃ�̍L��,�C�ݕ���,2022/4/4,10:00,115,57
��Ƃ�̍L��,�C�ݕ���,2022/4/4,11:00,213,112
��Ƃ�̍L��,�C�ݕ���,2022/4/4,12:00,253,136
��Ƃ�̍L��,�C�ݕ���,2022/4/4,13:00,199,103
��Ƃ�̍L��,�C�ݕ���,2022/4/4,14:00,189,120
��Ƃ�̍L��,�C�ݕ���,2022/4/4,15:00,168,104
��Ƃ�̍L��,�C�ݕ���,2022/4/4,16:00,89,75
��Ƃ�̍L��,�C�ݕ���,2022/4/4,17:00,77,65
��Ƃ�̍L��,�C�ݕ���,2022/4/4,18:00,51,56
��Ƃ�̍L��,�C�ݕ���,2022/4/4,19:00,48,35
��Ƃ�̍L��,�C�ݕ���,2022/4/4,20:00,30,22
��Ƃ�̍L��,�C�ݕ���,2022/4/4,21:00,27,16
��Ƃ�̍L��,�C�ݕ���,2022/4/4,22:00,14,8
��Ƃ�̍L��,�C�ݕ���,2022/4/4,23:00,6,12
��Ƃ�̍L��,�C�ݕ���,2022/4/5,0:00,1,2
��Ƃ�̍L��,�C�ݕ���,2022/4/5,1:00,0,1
��Ƃ�̍L��,�C�ݕ���,2022/4/5,2:00,0,0
��Ƃ�̍L��,�C�ݕ���,2022/4/5,3:00,2,1
��Ƃ�̍L��,�C�ݕ���,2022/4/5,4:00,2,2
��Ƃ�̍L��,�C�ݕ���,2022/4/5,5:00,2,4
��Ƃ�̍L��,�C�ݕ���,2022/4/5,6:00,9,12
��Ƃ�̍L��,�C�ݕ���,2022/4/5,7:00,12,42
��Ƃ�̍L��,�C�ݕ���,2022/4/5,8:00,43,42
��Ƃ�̍L��,�C�ݕ���,2022/4/5,9:00,62,37
��Ƃ�̍L��,�C�ݕ���,2022/4/5,10:00,120,67
��Ƃ�̍L��,�C�ݕ���,2022/4/5,11:00,161,119
��Ƃ�̍L��,�C�ݕ���,2022/4/5,12:00,176,119
��Ƃ�̍L��,�C�ݕ���,2022/4/5,13:00,181,111
��Ƃ�̍L��,�C�ݕ���,2022/4/5,14:00,150,94
��Ƃ�̍L��,�C�ݕ���,2022/4/5,15:00,151,70
��Ƃ�̍L��,�C�ݕ���,2022/4/5,16:00,80,95
��Ƃ�̍L��,�C�ݕ���,2022/4/5,17:00,101,54
��Ƃ�̍L��,�C�ݕ���,2022/4/5,18:00,56,50
��Ƃ�̍L��,�C�ݕ���,2022/4/5,19:00,38,36
��Ƃ�̍L��,�C�ݕ���,2022/4/5,20:00,21,17
��Ƃ�̍L��,�C�ݕ���,2022/4/5,21:00,11,20
��Ƃ�̍L��,�C�ݕ���,2022/4/5,22:00,14,9
��Ƃ�̍L��,�C�ݕ���,2022/4/5,23:00,2,8
��Ƃ�̍L��,�C�ݕ���,2022/4/6,0:00,0,2
��Ƃ�̍L��,�C�ݕ���,2022/4/6,1:00,3,5
��Ƃ�̍L��,�C�ݕ���,2022/4/6,2:00,5,2
��Ƃ�̍L��,�C�ݕ���,2022/4/6,3:00,1,0
��Ƃ�̍L��,�C�ݕ���,2022/4/6,4:00,2,1
��Ƃ�̍L��,�C�ݕ���,2022/4/6,5:00,2,3
��Ƃ�̍L��,�C�ݕ���,2022/4/6,6:00,9,13
��Ƃ�̍L��,�C�ݕ���,2022/4/6,7:00,21,21
��Ƃ�̍L��,�C�ݕ���,2022/4/6,8:00,28,29
��Ƃ�̍L��,�C�ݕ���,2022/4/6,9:00,44,23
��Ƃ�̍L��,�C�ݕ���,2022/4/6,10:00,97,39
��Ƃ�̍L��,�C�ݕ���,2022/4/6,11:00,114,80
��Ƃ�̍L��,�C�ݕ���,2022/4/6,12:00,165,106
��Ƃ�̍L��,�C�ݕ���,2022/4/6,13:00,125,86
��Ƃ�̍L��,�C�ݕ���,2022/4/6,14:00,143,78
��Ƃ�̍L��,�C�ݕ���,2022/4/6,15:00,87,89
��Ƃ�̍L��,�C�ݕ���,2022/4/6,16:00,80,42
��Ƃ�̍L��,�C�ݕ���,2022/4/6,17:00,84,47
��Ƃ�̍L��,�C�ݕ���,2022/4/6,18:00,46,30
��Ƃ�̍L��,�C�ݕ���,2022/4/6,19:00,37,19
��Ƃ�̍L��,�C�ݕ���,2022/4/6,20:00,26,24
��Ƃ�̍L��,�C�ݕ���,2022/4/6,21:00,18,26
��Ƃ�̍L��,�C�ݕ���,2022/4/6,22:00,8,5
��Ƃ�̍L��,�C�ݕ���,2022/4/6,23:00,4,6
��Ƃ�̍L��,�C�ݕ���,2022/4/7,0:00,3,2
��Ƃ�̍L��,�C�ݕ���,2022/4/7,1:00,1,2
��Ƃ�̍L��,�C�ݕ���,2022/4/7,2:00,0,0
��Ƃ�̍L��,�C�ݕ���,2022/4/7,3:00,0,0
��Ƃ�̍L��,�C�ݕ���,2022/4/7,4:00,3,5
��Ƃ�̍L��,�C�ݕ���,2022/4/7,5:00,4,2
��Ƃ�̍L��,�C�ݕ���,2022/4/7,6:00,9,15
��Ƃ�̍L��,�C�ݕ���,2022/4/7,7:00,12,23
��Ƃ�̍L��,�C�ݕ���,2022/4/7,8:00,29,30
��Ƃ�̍L��,�C�ݕ���,2022/4/7,9:00,56,34
��Ƃ�̍L��,�C�ݕ���,2022/4/7,10:00,68,46
��Ƃ�̍L��,�C�ݕ���,2022/4/7,11:00,99,61
��Ƃ�̍L��,�C�ݕ���,2022/4/7,12:00,135,68
��Ƃ�̍L��,�C�ݕ���,2022/4/7,13:00,127,71
��Ƃ�̍L��,�C�ݕ���,2022/4/7,14:00,97,60
��Ƃ�̍L��,�C�ݕ���,2022/4/7,15:00,86,78
��Ƃ�̍L��,�C�ݕ���,2022/4/7,16:00,58,47
��Ƃ�̍L��,�C�ݕ���,2022/4/7,17:00,50,36
��Ƃ�̍L��,�C�ݕ���,2022/4/7,18:00,44,39
��Ƃ�̍L��,�C�ݕ���,2022/4/7,19:00,33,22
��Ƃ�̍L��,�C�ݕ���,2022/4/7,20:00,20,19
��Ƃ�̍L��,�C�ݕ���,2022/4/7,21:00,32,24
��Ƃ�̍L��,�C�ݕ���,2022/4/7,22:00,10,6
��Ƃ�̍L��,�C�ݕ���,2022/4/7,23:00,2,9
��Ƃ�̍L��,�C�ݕ���,2022/4/8,0:00,3,4
��Ƃ�̍L��,�C�ݕ���,2022/4/8,1:00,1,1
��Ƃ�̍L��,�C�ݕ���,2022/4/8,2:00,2,1
��Ƃ�̍L��,�C�ݕ���,2022/4/8,3:00,0,0
��Ƃ�̍L��,�C�ݕ���,2022/4/8,4:00,3,0
��Ƃ�̍L��,�C�ݕ���,2022/4/8,5:00,2,5
��Ƃ�̍L��,�C�ݕ���,2022/4/8,6:00,8,12
��Ƃ�̍L��,�C�ݕ���,2022/4/8,7:00,28,26
��Ƃ�̍L��,�C�ݕ���,2022/4/8,8:00,41,36
��Ƃ�̍L��,�C�ݕ���,2022/4/8,9:00,59,27
��Ƃ�̍L��,�C�ݕ���,2022/4/8,10:00,80,41
��Ƃ�̍L��,�C�ݕ���,2022/4/8,11:00,105,60
��Ƃ�̍L��,�C�ݕ���,2022/4/8,12:00,140,80
��Ƃ�̍L��,�C�ݕ���,2022/4/8,13:00,99,63
��Ƃ�̍L��,�C�ݕ���,2022/4/8,14:00,92,84
��Ƃ�̍L��,�C�ݕ���,2022/4/8,15:00,89,38
��Ƃ�̍L��,�C�ݕ���,2022/4/8,16:00,93,61
��Ƃ�̍L��,�C�ݕ���,2022/4/8,17:00,95,35
��Ƃ�̍L��,�C�ݕ���,2022/4/8,18:00,73,35
��Ƃ�̍L��,�C�ݕ���,2022/4/8,19:00,48,25
��Ƃ�̍L��,�C�ݕ���,2022/4/8,20:00,26,28
��Ƃ�̍L��,�C�ݕ���,2022/4/8,21:00,23,20
��Ƃ�̍L��,�C�ݕ���,2022/4/8,22:00,16,13
��Ƃ�̍L��,�C�ݕ���,2022/4/8,23:00,10,16
��Ƃ�̍L��,�C�ݕ���,2022/4/9,0:00,10,3
��Ƃ�̍L��,�C�ݕ���,2022/4/9,1:00,5,5
��Ƃ�̍L��,�C�ݕ���,2022/4/9,2:00,2,3
��Ƃ�̍L��,�C�ݕ���,2022/4/9,3:00,1,1
��Ƃ�̍L��,�C�ݕ���,2022/4/9,4:00,1,1
��Ƃ�̍L��,�C�ݕ���,2022/4/9,5:00,2,8
��Ƃ�̍L��,�C�ݕ���,2022/4/9,6:00,8,12
��Ƃ�̍L��,�C�ݕ���,2022/4/9,7:00,15,23
��Ƃ�̍L��,�C�ݕ���,2022/4/9,8:00,31,21
��Ƃ�̍L��,�C�ݕ���,2022/4/9,9:00,68,20
��Ƃ�̍L��,�C�ݕ���,2022/4/9,10:00,79,48
��Ƃ�̍L��,�C�ݕ���,2022/4/9,11:00,132,99
��Ƃ�̍L��,�C�ݕ���,2022/4/9,12:00,139,84
��Ƃ�̍L��,�C�ݕ���,2022/4/9,13:00,190,102
��Ƃ�̍L��,�C�ݕ���,2022/4/9,14:00,134,81
��Ƃ�̍L��,�C�ݕ���,2022/4/9,15:00,103,104
��Ƃ�̍L��,�C�ݕ���,2022/4/9,16:00,163,89
��Ƃ�̍L��,�C�ݕ���,2022/4/9,17:00,79,57
��Ƃ�̍L��,�C�ݕ���,2022/4/9,18:00,47,38
��Ƃ�̍L��,�C�ݕ���,2022/4/9,19:00,49,33
��Ƃ�̍L��,�C�ݕ���,2022/4/9,20:00,22,10
��Ƃ�̍L��,�C�ݕ���,2022/4/9,21:00,20,29
��Ƃ�̍L��,�C�ݕ���,2022/4/9,22:00,16,13
��Ƃ�̍L��,�C�ݕ���,2022/4/9,23:00,3,11
��Ƃ�̍L��,�C�ݕ���,2022/4/10,0:00,5,10
��Ƃ�̍L��,�C�ݕ���,2022/4/10,1:00,6,0
��Ƃ�̍L��,�C�ݕ���,2022/4/10,2:00,5,4
��Ƃ�̍L��,�C�ݕ���,2022/4/10,3:00,2,1
��Ƃ�̍L��,�C�ݕ���,2022/4/10,4:00,1,4
��Ƃ�̍L��,�C�ݕ���,2022/4/10,5:00,3,7
��Ƃ�̍L��,�C�ݕ���,2022/4/10,6:00,8,10
��Ƃ�̍L��,�C�ݕ���,2022/4/10,7:00,12,12
��Ƃ�̍L��,�C�ݕ���,2022/4/10,8:00,16,16
��Ƃ�̍L��,�C�ݕ���,2022/4/10,9:00,44,16
��Ƃ�̍L��,�C�ݕ���,2022/4/10,10:00,92,41
��Ƃ�̍L��,�C�ݕ���,2022/4/10,11:00,138,91
��Ƃ�̍L��,�C�ݕ���,2022/4/10,12:00,202,113
��Ƃ�̍L��,�C�ݕ���,2022/4/10,13:00,211,102
��Ƃ�̍L��,�C�ݕ���,2022/4/10,14:00,167,106
��Ƃ�̍L��,�C�ݕ���,2022/4/10,15:00,109,91
��Ƃ�̍L��,�C�ݕ���,2022/4/10,16:00,90,88
��Ƃ�̍L��,�C�ݕ���,2022/4/10,17:00,46,47
��Ƃ�̍L��,�C�ݕ���,2022/4/10,18:00,27,21
��Ƃ�̍L��,�C�ݕ���,2022/4/10,19:00,26,14
��Ƃ�̍L��,�C�ݕ���,2022/4/10,20:00,13,7
��Ƃ�̍L��,�C�ݕ���,2022/4/10,21:00,4,9
��Ƃ�̍L��,�C�ݕ���,2022/4/10,22:00,4,3
��Ƃ�̍L��,�C�ݕ���,2022/4/10,23:00,1,0
��Ƃ�̍L��,�C�ݕ���,2022/4/11,0:00,2,0
��Ƃ�̍L��,�C�ݕ���,2022/4/11,1:00,1,0
��Ƃ�̍L��,�C�ݕ���,2022/4/11,2:00,0,0
��Ƃ�̍L��,�C�ݕ���,2022/4/11,3:00,1,0
��Ƃ�̍L��,�C�ݕ���,2022/4/11,4:00,1,3
��Ƃ�̍L��,�C�ݕ���,2022/4/11,5:00,2,6
��Ƃ�̍L��,�C�ݕ���,2022/4/11,6:00,11,10
��Ƃ�̍L��,�C�ݕ���,2022/4/11,7:00,13,19
��Ƃ�̍L��,�C�ݕ���,2022/4/11,8:00,34,27
��Ƃ�̍L��,�C�ݕ���,2022/4/11,9:00,51,21
��Ƃ�̍L��,�C�ݕ���,2022/4/11,10:00,69,45
��Ƃ�̍L��,�C�ݕ���,2022/4/11,11:00,62,42
��Ƃ�̍L��,�C�ݕ���,2022/4/11,12:00,86,44
��Ƃ�̍L��,�C�ݕ���,2022/4/11,13:00,107,61
��Ƃ�̍L��,�C�ݕ���,2022/4/11,14:00,86,61
��Ƃ�̍L��,�C�ݕ���,2022/4/11,15:00,76,48
��Ƃ�̍L��,�C�ݕ���,2022/4/11,16:00,61,31
��Ƃ�̍L��,�C�ݕ���,2022/4/11,17:00,51,40
��Ƃ�̍L��,�C�ݕ���,2022/4/11,18:00,48,30
��Ƃ�̍L��,�C�ݕ���,2022/4/11,19:00,28,16
��Ƃ�̍L��,�C�ݕ���,2022/4/11,20:00,22,19
��Ƃ�̍L��,�C�ݕ���,2022/4/11,21:00,19,14
��Ƃ�̍L��,�C�ݕ���,2022/4/11,22:00,8,8
��Ƃ�̍L��,�C�ݕ���,2022/4/11,23:00,2,6
��Ƃ�̍L��,�C�ݕ���,2022/4/12,0:00,1,1
��Ƃ�̍L��,�C�ݕ���,2022/4/12,1:00,1,1
��Ƃ�̍L��,�C�ݕ���,2022/4/12,2:00,1,1
��Ƃ�̍L��,�C�ݕ���,2022/4/12,3:00,1,0
��Ƃ�̍L��,�C�ݕ���,2022/4/12,4:00,2,2
��Ƃ�̍L��,�C�ݕ���,2022/4/12,5:00,2,4
��Ƃ�̍L��,�C�ݕ���,2022/4/12,6:00,14,14
��Ƃ�̍L��,�C�ݕ���,2022/4/12,7:00,16,16
��Ƃ�̍L��,�C�ݕ���,2022/4/12,8:00,26,30
��Ƃ�̍L��,�C�ݕ���,2022/4/12,9:00,54,30
��Ƃ�̍L��,�C�ݕ���,2022/4/12,10:00,51,36
��Ƃ�̍L��,�C�ݕ���,2022/4/12,11:00,69,43
��Ƃ�̍L��,�C�ݕ���,2022/4/12,12:00,75,47
��Ƃ�̍L��,�C�ݕ���,2022/4/12,13:00,58,40
��Ƃ�̍L��,�C�ݕ���,2022/4/12,14:00,69,42
��Ƃ�̍L��,�C�ݕ���,2022/4/12,15:00,51,35
��Ƃ�̍L��,�C�ݕ���,2022/4/12,16:00,55,48
��Ƃ�̍L��,�C�ݕ���,2022/4/12,17:00,45,25
��Ƃ�̍L��,�C�ݕ���,2022/4/12,18:00,49,32
��Ƃ�̍L��,�C�ݕ���,2022/4/12,19:00,27,20
��Ƃ�̍L��,�C�ݕ���,2022/4/12,20:00,26,20
��Ƃ�̍L��,�C�ݕ���,2022/4/12,21:00,19,8
��Ƃ�̍L��,�C�ݕ���,2022/4/12,22:00,10,1
��Ƃ�̍L��,�C�ݕ���,2022/4/12,23:00,6,4
��Ƃ�̍L��,�C�ݕ���,2022/4/13,0:00,0,5
��Ƃ�̍L��,�C�ݕ���,2022/4/13,1:00,0,0
��Ƃ�̍L��,�C�ݕ���,2022/4/13,2:00,0,0
��Ƃ�̍L��,�C�ݕ���,2022/4/13,3:00,1,0
��Ƃ�̍L��,�C�ݕ���,2022/4/13,4:00,1,1
��Ƃ�̍L��,�C�ݕ���,2022/4/13,5:00,0,1
��Ƃ�̍L��,�C�ݕ���,2022/4/13,6:00,12,8
��Ƃ�̍L��,�C�ݕ���,2022/4/13,7:00,13,20
��Ƃ�̍L��,�C�ݕ���,2022/4/13,8:00,21,18
��Ƃ�̍L��,�C�ݕ���,2022/4/13,9:00,43,23
��Ƃ�̍L��,�C�ݕ���,2022/4/13,10:00,46,39
��Ƃ�̍L��,�C�ݕ���,2022/4/13,11:00,58,48
��Ƃ�̍L��,�C�ݕ���,2022/4/13,12:00,104,49
��Ƃ�̍L��,�C�ݕ���,2022/4/13,13:00,92,42
��Ƃ�̍L��,�C�ݕ���,2022/4/13,14:00,67,26
��Ƃ�̍L��,�C�ݕ���,2022/4/13,15:00,64,29
��Ƃ�̍L��,�C�ݕ���,2022/4/13,16:00,47,28
��Ƃ�̍L��,�C�ݕ���,2022/4/13,17:00,47,30
��Ƃ�̍L��,�C�ݕ���,2022/4/13,18:00,45,25
��Ƃ�̍L��,�C�ݕ���,2022/4/13,19:00,19,13
��Ƃ�̍L��,�C�ݕ���,2022/4/13,20:00,14,17
��Ƃ�̍L��,�C�ݕ���,2022/4/13,21:00,22,9
��Ƃ�̍L��,�C�ݕ���,2022/4/13,22:00,9,6
��Ƃ�̍L��,�C�ݕ���,2022/4/13,23:00,3,5
��Ƃ�̍L��,�C�ݕ���,2022/4/14,0:00,5,1
��Ƃ�̍L��,�C�ݕ���,2022/4/14,1:00,3,2
��Ƃ�̍L��,�C�ݕ���,2022/4/14,2:00,1,0
��Ƃ�̍L��,�C�ݕ���,2022/4/14,3:00,0,3
��Ƃ�̍L��,�C�ݕ���,2022/4/14,4:00,1,1
��Ƃ�̍L��,�C�ݕ���,2022/4/14,5:00,1,5
��Ƃ�̍L��,�C�ݕ���,2022/4/14,6:00,6,11
��Ƃ�̍L��,�C�ݕ���,2022/4/14,7:00,14,36
��Ƃ�̍L��,�C�ݕ���,2022/4/14,8:00,29,77
��Ƃ�̍L��,�C�ݕ���,2022/4/14,9:00,41,81
��Ƃ�̍L��,�C�ݕ���,2022/4/14,10:00,50,66
��Ƃ�̍L��,�C�ݕ���,2022/4/14,11:00,38,92
��Ƃ�̍L��,�C�ݕ���,2022/4/14,12:00,79,63
��Ƃ�̍L��,�C�ݕ���,2022/4/14,13:00,54,38
��Ƃ�̍L��,�C�ݕ���,2022/4/14,14:00,61,46
��Ƃ�̍L��,�C�ݕ���,2022/4/14,15:00,94,83
��Ƃ�̍L��,�C�ݕ���,2022/4/14,16:00,60,57
��Ƃ�̍L��,�C�ݕ���,2022/4/14,17:00,53,56
��Ƃ�̍L��,�C�ݕ���,2022/4/14,18:00,34,62
��Ƃ�̍L��,�C�ݕ���,2022/4/14,19:00,17,25
��Ƃ�̍L��,�C�ݕ���,2022/4/14,20:00,12,23
��Ƃ�̍L��,�C�ݕ���,2022/4/14,21:00,26,39
��Ƃ�̍L��,�C�ݕ���,2022/4/14,22:00,12,5
��Ƃ�̍L��,�C�ݕ���,2022/4/14,23:00,4,5
��Ƃ�̍L��,�C�ݕ���,2022/4/15,0:00,4,1
��Ƃ�̍L��,�C�ݕ���,2022/4/15,1:00,1,2
��Ƃ�̍L��,�C�ݕ���,2022/4/15,2:00,0,0
��Ƃ�̍L��,�C�ݕ���,2022/4/15,3:00,2,0
��Ƃ�̍L��,�C�ݕ���,2022/4/15,4:00,1,2
��Ƃ�̍L��,�C�ݕ���,2022/4/15,5:00,2,1
��Ƃ�̍L��,�C�ݕ���,2022/4/15,6:00,5,5
��Ƃ�̍L��,�C�ݕ���,2022/4/15,7:00,21,36
��Ƃ�̍L��,�C�ݕ���,2022/4/15,8:00,33,113
��Ƃ�̍L��,�C�ݕ���,2022/4/15,9:00,57,64
��Ƃ�̍L��,�C�ݕ���,2022/4/15,10:00,92,70
��Ƃ�̍L��,�C�ݕ���,2022/4/15,11:00,102,79
��Ƃ�̍L��,�C�ݕ���,2022/4/15,12:00,97,72
��Ƃ�̍L��,�C�ݕ���,2022/4/15,13:00,97,63
��Ƃ�̍L��,�C�ݕ���,2022/4/15,14:00,90,67
��Ƃ�̍L��,�C�ݕ���,2022/4/15,15:00,111,95
��Ƃ�̍L��,�C�ݕ���,2022/4/15,16:00,64,76
��Ƃ�̍L��,�C�ݕ���,2022/4/15,17:00,76,77
��Ƃ�̍L��,�C�ݕ���,2022/4/15,18:00,57,81
��Ƃ�̍L��,�C�ݕ���,2022/4/15,19:00,34,19
��Ƃ�̍L��,�C�ݕ���,2022/4/15,20:00,25,31
��Ƃ�̍L��,�C�ݕ���,2022/4/15,21:00,33,25
��Ƃ�̍L��,�C�ݕ���,2022/4/15,22:00,9,16
��Ƃ�̍L��,�C�ݕ���,2022/4/15,23:00,5,11
��Ƃ�̍L��,�C�ݕ���,2022/4/16,0:00,5,5
��Ƃ�̍L��,�C�ݕ���,2022/4/16,1:00,1,4
��Ƃ�̍L��,�C�ݕ���,2022/4/16,2:00,1,1
��Ƃ�̍L��,�C�ݕ���,2022/4/16,3:00,2,1
��Ƃ�̍L��,�C�ݕ���,2022/4/16,4:00,0,3
��Ƃ�̍L��,�C�ݕ���,2022/4/16,5:00,2,4
��Ƃ�̍L��,�C�ݕ���,2022/4/16,6:00,7,11
��Ƃ�̍L��,�C�ݕ���,2022/4/16,7:00,9,24
��Ƃ�̍L��,�C�ݕ���,2022/4/16,8:00,26,45
��Ƃ�̍L��,�C�ݕ���,2022/4/16,9:00,57,19
��Ƃ�̍L��,�C�ݕ���,2022/4/16,10:00,71,58
��Ƃ�̍L��,�C�ݕ���,2022/4/16,11:00,131,76
��Ƃ�̍L��,�C�ݕ���,2022/4/16,12:00,145,85
��Ƃ�̍L��,�C�ݕ���,2022/4/16,13:00,147,94
��Ƃ�̍L��,�C�ݕ���,2022/4/16,14:00,164,115
��Ƃ�̍L��,�C�ݕ���,2022/4/16,15:00,114,98
��Ƃ�̍L��,�C�ݕ���,2022/4/16,16:00,121,83
��Ƃ�̍L��,�C�ݕ���,2022/4/16,17:00,59,94
��Ƃ�̍L��,�C�ݕ���,2022/4/16,18:00,67,71
��Ƃ�̍L��,�C�ݕ���,2022/4/16,19:00,47,45
��Ƃ�̍L��,�C�ݕ���,2022/4/16,20:00,18,17
��Ƃ�̍L��,�C�ݕ���,2022/4/16,21:00,21,21
��Ƃ�̍L��,�C�ݕ���,2022/4/16,22:00,16,14
��Ƃ�̍L��,�C�ݕ���,2022/4/16,23:00,13,2
��Ƃ�̍L��,�C�ݕ���,2022/4/17,0:00,4,5
��Ƃ�̍L��,�C�ݕ���,2022/4/17,1:00,1,2
��Ƃ�̍L��,�C�ݕ���,2022/4/17,2:00,1,0
��Ƃ�̍L��,�C�ݕ���,2022/4/17,3:00,3,2
��Ƃ�̍L��,�C�ݕ���,2022/4/17,4:00,1,4
��Ƃ�̍L��,�C�ݕ���,2022/4/17,5:00,7,4
��Ƃ�̍L��,�C�ݕ���,2022/4/17,6:00,9,11
��Ƃ�̍L��,�C�ݕ���,2022/4/17,7:00,11,16
��Ƃ�̍L��,�C�ݕ���,2022/4/17,8:00,17,29
��Ƃ�̍L��,�C�ݕ���,2022/4/17,9:00,42,25
��Ƃ�̍L��,�C�ݕ���,2022/4/17,10:00,71,46
��Ƃ�̍L��,�C�ݕ���,2022/4/17,11:00,106,75
��Ƃ�̍L��,�C�ݕ���,2022/4/17,12:00,183,98
��Ƃ�̍L��,�C�ݕ���,2022/4/17,13:00,135,115
��Ƃ�̍L��,�C�ݕ���,2022/4/17,14:00,131,94
��Ƃ�̍L��,�C�ݕ���,2022/4/17,15:00,126,110
��Ƃ�̍L��,�C�ݕ���,2022/4/17,16:00,69,91
��Ƃ�̍L��,�C�ݕ���,2022/4/17,17:00,58,53
��Ƃ�̍L��,�C�ݕ���,2022/4/17,18:00,42,38
��Ƃ�̍L��,�C�ݕ���,2022/4/17,19:00,16,20
��Ƃ�̍L��,�C�ݕ���,2022/4/17,20:00,16,19
��Ƃ�̍L��,�C�ݕ���,2022/4/17,21:00,7,10
��Ƃ�̍L��,�C�ݕ���,2022/4/17,22:00,6,7
��Ƃ�̍L��,�C�ݕ���,2022/4/17,23:00,5,10
��Ƃ�̍L��,�C�ݕ���,2022/4/18,0:00,0,3
��Ƃ�̍L��,�C�ݕ���,2022/4/18,1:00,1,0
��Ƃ�̍L��,�C�ݕ���,2022/4/18,2:00,1,0
��Ƃ�̍L��,�C�ݕ���,2022/4/18,3:00,2,1
��Ƃ�̍L��,�C�ݕ���,2022/4/18,4:00,1,2
��Ƃ�̍L��,�C�ݕ���,2022/4/18,5:00,1,1
��Ƃ�̍L��,�C�ݕ���,2022/4/18,6:00,12,16
��Ƃ�̍L��,�C�ݕ���,2022/4/18,7:00,14,28
��Ƃ�̍L��,�C�ݕ���,2022/4/18,8:00,27,76
��Ƃ�̍L��,�C�ݕ���,2022/4/18,9:00,55,31
��Ƃ�̍L��,�C�ݕ���,2022/4/18,10:00,73,54
��Ƃ�̍L��,�C�ݕ���,2022/4/18,11:00,94,59
��Ƃ�̍L��,�C�ݕ���,2022/4/18,12:00,90,49
��Ƃ�̍L��,�C�ݕ���,2022/4/18,13:00,84,54
��Ƃ�̍L��,�C�ݕ���,2022/4/18,14:00,74,57
��Ƃ�̍L��,�C�ݕ���,2022/4/18,15:00,84,53
��Ƃ�̍L��,�C�ݕ���,2022/4/18,16:00,70,44
��Ƃ�̍L��,�C�ݕ���,2022/4/18,17:00,62,36
��Ƃ�̍L��,�C�ݕ���,2022/4/18,18:00,37,33
��Ƃ�̍L��,�C�ݕ���,2022/4/18,19:00,32,21
��Ƃ�̍L��,�C�ݕ���,2022/4/18,20:00,16,18
��Ƃ�̍L��,�C�ݕ���,2022/4/18,21:00,13,25
��Ƃ�̍L��,�C�ݕ���,2022/4/18,22:00,17,17
��Ƃ�̍L��,�C�ݕ���,2022/4/18,23:00,4,4
��Ƃ�̍L��,�C�ݕ���,2022/4/19,0:00,1,2
��Ƃ�̍L��,�C�ݕ���,2022/4/19,1:00,2,2
��Ƃ�̍L��,�C�ݕ���,2022/4/19,2:00,1,0
��Ƃ�̍L��,�C�ݕ���,2022/4/19,3:00,1,0
��Ƃ�̍L��,�C�ݕ���,2022/4/19,4:00,3,1
��Ƃ�̍L��,�C�ݕ���,2022/4/19,5:00,3,7
��Ƃ�̍L��,�C�ݕ���,2022/4/19,6:00,11,14
��Ƃ�̍L��,�C�ݕ���,2022/4/19,7:00,14,28
��Ƃ�̍L��,�C�ݕ���,2022/4/19,8:00,42,47
��Ƃ�̍L��,�C�ݕ���,2022/4/19,9:00,58,21
��Ƃ�̍L��,�C�ݕ���,2022/4/19,10:00,63,40
��Ƃ�̍L��,�C�ݕ���,2022/4/19,11:00,97,61
��Ƃ�̍L��,�C�ݕ���,2022/4/19,12:00,82,39
��Ƃ�̍L��,�C�ݕ���,2022/4/19,13:00,85,40
��Ƃ�̍L��,�C�ݕ���,2022/4/19,14:00,74,41
��Ƃ�̍L��,�C�ݕ���,2022/4/19,15:00,65,34
��Ƃ�̍L��,�C�ݕ���,2022/4/19,16:00,62,57
��Ƃ�̍L��,�C�ݕ���,2022/4/19,17:00,60,24
��Ƃ�̍L��,�C�ݕ���,2022/4/19,18:00,51,26
��Ƃ�̍L��,�C�ݕ���,2022/4/19,19:00,33,28
��Ƃ�̍L��,�C�ݕ���,2022/4/19,20:00,16,28
��Ƃ�̍L��,�C�ݕ���,2022/4/19,21:00,19,18
��Ƃ�̍L��,�C�ݕ���,2022/4/19,22:00,14,7
��Ƃ�̍L��,�C�ݕ���,2022/4/19,23:00,8,5
��Ƃ�̍L��,�C�ݕ���,2022/4/20,0:00,4,5
��Ƃ�̍L��,�C�ݕ���,2022/4/20,1:00,0,2
��Ƃ�̍L��,�C�ݕ���,2022/4/20,2:00,0,2
��Ƃ�̍L��,�C�ݕ���,2022/4/20,3:00,2,2
��Ƃ�̍L��,�C�ݕ���,2022/4/20,4:00,1,0
��Ƃ�̍L��,�C�ݕ���,2022/4/20,5:00,4,5
��Ƃ�̍L��,�C�ݕ���,2022/4/20,6:00,8,14
��Ƃ�̍L��,�C�ݕ���,2022/4/20,7:00,13,29
��Ƃ�̍L��,�C�ݕ���,2022/4/20,8:00,35,48
��Ƃ�̍L��,�C�ݕ���,2022/4/20,9:00,56,22
��Ƃ�̍L��,�C�ݕ���,2022/4/20,10:00,42,33
��Ƃ�̍L��,�C�ݕ���,2022/4/20,11:00,78,52
��Ƃ�̍L��,�C�ݕ���,2022/4/20,12:00,90,46
��Ƃ�̍L��,�C�ݕ���,2022/4/20,13:00,98,56
��Ƃ�̍L��,�C�ݕ���,2022/4/20,14:00,77,57
��Ƃ�̍L��,�C�ݕ���,2022/4/20,15:00,75,48
��Ƃ�̍L��,�C�ݕ���,2022/4/20,16:00,82,33
��Ƃ�̍L��,�C�ݕ���,2022/4/20,17:00,47,31
��Ƃ�̍L��,�C�ݕ���,2022/4/20,18:00,75,38
��Ƃ�̍L��,�C�ݕ���,2022/4/20,19:00,47,27
��Ƃ�̍L��,�C�ݕ���,2022/4/20,20:00,16,31
��Ƃ�̍L��,�C�ݕ���,2022/4/20,21:00,13,33
��Ƃ�̍L��,�C�ݕ���,2022/4/20,22:00,10,17
��Ƃ�̍L��,�C�ݕ���,2022/4/20,23:00,4,8
��Ƃ�̍L��,�C�ݕ���,2022/4/21,0:00,3,2
��Ƃ�̍L��,�C�ݕ���,2022/4/21,1:00,1,2
��Ƃ�̍L��,�C�ݕ���,2022/4/21,2:00,0,3
��Ƃ�̍L��,�C�ݕ���,2022/4/21,3:00,4,3
��Ƃ�̍L��,�C�ݕ���,2022/4/21,4:00,2,4
��Ƃ�̍L��,�C�ݕ���,2022/4/21,5:00,2,4
��Ƃ�̍L��,�C�ݕ���,2022/4/21,6:00,6,9
��Ƃ�̍L��,�C�ݕ���,2022/4/21,7:00,20,33
��Ƃ�̍L��,�C�ݕ���,2022/4/21,8:00,31,56
��Ƃ�̍L��,�C�ݕ���,2022/4/21,9:00,59,42
��Ƃ�̍L��,�C�ݕ���,2022/4/21,10:00,70,49
��Ƃ�̍L��,�C�ݕ���,2022/4/21,11:00,79,72
��Ƃ�̍L��,�C�ݕ���,2022/4/21,12:00,95,69
��Ƃ�̍L��,�C�ݕ���,2022/4/21,13:00,60,61
��Ƃ�̍L��,�C�ݕ���,2022/4/21,14:00,50,65
��Ƃ�̍L��,�C�ݕ���,2022/4/21,15:00,54,66
��Ƃ�̍L��,�C�ݕ���,2022/4/21,16:00,58,52
��Ƃ�̍L��,�C�ݕ���,2022/4/21,17:00,54,50
��Ƃ�̍L��,�C�ݕ���,2022/4/21,18:00,36,66
��Ƃ�̍L��,�C�ݕ���,2022/4/21,19:00,19,34
��Ƃ�̍L��,�C�ݕ���,2022/4/21,20:00,24,21
��Ƃ�̍L��,�C�ݕ���,2022/4/21,21:00,17,21
��Ƃ�̍L��,�C�ݕ���,2022/4/21,22:00,11,11
��Ƃ�̍L��,�C�ݕ���,2022/4/21,23:00,1,4
��Ƃ�̍L��,�C�ݕ���,2022/4/22,0:00,1,6
��Ƃ�̍L��,�C�ݕ���,2022/4/22,1:00,0,4
��Ƃ�̍L��,�C�ݕ���,2022/4/22,2:00,0,0
��Ƃ�̍L��,�C�ݕ���,2022/4/22,3:00,0,1
��Ƃ�̍L��,�C�ݕ���,2022/4/22,4:00,2,4
��Ƃ�̍L��,�C�ݕ���,2022/4/22,5:00,5,5
��Ƃ�̍L��,�C�ݕ���,2022/4/22,6:00,9,10
��Ƃ�̍L��,�C�ݕ���,2022/4/22,7:00,15,31
��Ƃ�̍L��,�C�ݕ���,2022/4/22,8:00,41,41
��Ƃ�̍L��,�C�ݕ���,2022/4/22,9:00,67,24
��Ƃ�̍L��,�C�ݕ���,2022/4/22,10:00,110,68
��Ƃ�̍L��,�C�ݕ���,2022/4/22,11:00,138,90
��Ƃ�̍L��,�C�ݕ���,2022/4/22,12:00,105,110
��Ƃ�̍L��,�C�ݕ���,2022/4/22,13:00,127,84
��Ƃ�̍L��,�C�ݕ���,2022/4/22,14:00,86,51
��Ƃ�̍L��,�C�ݕ���,2022/4/22,15:00,98,59
��Ƃ�̍L��,�C�ݕ���,2022/4/22,16:00,83,31
��Ƃ�̍L��,�C�ݕ���,2022/4/22,17:00,73,28
��Ƃ�̍L��,�C�ݕ���,2022/4/22,18:00,60,30
��Ƃ�̍L��,�C�ݕ���,2022/4/22,19:00,48,25
��Ƃ�̍L��,�C�ݕ���,2022/4/22,20:00,27,28
��Ƃ�̍L��,�C�ݕ���,2022/4/22,21:00,33,34
��Ƃ�̍L��,�C�ݕ���,2022/4/22,22:00,16,16
��Ƃ�̍L��,�C�ݕ���,2022/4/22,23:00,15,5
��Ƃ�̍L��,�C�ݕ���,2022/4/23,0:00,4,4
��Ƃ�̍L��,�C�ݕ���,2022/4/23,1:00,0,5
��Ƃ�̍L��,�C�ݕ���,2022/4/23,2:00,2,4
��Ƃ�̍L��,�C�ݕ���,2022/4/23,3:00,2,1
��Ƃ�̍L��,�C�ݕ���,2022/4/23,4:00,4,5
��Ƃ�̍L��,�C�ݕ���,2022/4/23,5:00,2,5
��Ƃ�̍L��,�C�ݕ���,2022/4/23,6:00,7,13
��Ƃ�̍L��,�C�ݕ���,2022/4/23,7:00,12,17
��Ƃ�̍L��,�C�ݕ���,2022/4/23,8:00,26,20
��Ƃ�̍L��,�C�ݕ���,2022/4/23,9:00,53,26
��Ƃ�̍L��,�C�ݕ���,2022/4/23,10:00,77,48
��Ƃ�̍L��,�C�ݕ���,2022/4/23,11:00,112,71
��Ƃ�̍L��,�C�ݕ���,2022/4/23,12:00,119,70
��Ƃ�̍L��,�C�ݕ���,2022/4/23,13:00,140,87
��Ƃ�̍L��,�C�ݕ���,2022/4/23,14:00,207,115
��Ƃ�̍L��,�C�ݕ���,2022/4/23,15:00,173,98
��Ƃ�̍L��,�C�ݕ���,2022/4/23,16:00,73,63
��Ƃ�̍L��,�C�ݕ���,2022/4/23,17:00,44,51
��Ƃ�̍L��,�C�ݕ���,2022/4/23,18:00,52,43
��Ƃ�̍L��,�C�ݕ���,2022/4/23,19:00,32,31
��Ƃ�̍L��,�C�ݕ���,2022/4/23,20:00,30,19
��Ƃ�̍L��,�C�ݕ���,2022/4/23,21:00,24,15
��Ƃ�̍L��,�C�ݕ���,2022/4/23,22:00,14,8
��Ƃ�̍L��,�C�ݕ���,2022/4/23,23:00,8,10
��Ƃ�̍L��,�C�ݕ���,2022/4/24,0:00,4,3
��Ƃ�̍L��,�C�ݕ���,2022/4/24,1:00,4,6
��Ƃ�̍L��,�C�ݕ���,2022/4/24,2:00,2,2
��Ƃ�̍L��,�C�ݕ���,2022/4/24,3:00,1,0
��Ƃ�̍L��,�C�ݕ���,2022/4/24,4:00,1,2
��Ƃ�̍L��,�C�ݕ���,2022/4/24,5:00,3,2
��Ƃ�̍L��,�C�ݕ���,2022/4/24,6:00,6,7
��Ƃ�̍L��,�C�ݕ���,2022/4/24,7:00,18,13
��Ƃ�̍L��,�C�ݕ���,2022/4/24,8:00,17,30
��Ƃ�̍L��,�C�ݕ���,2022/4/24,9:00,24,45
��Ƃ�̍L��,�C�ݕ���,2022/4/24,10:00,59,74
��Ƃ�̍L��,�C�ݕ���,2022/4/24,11:00,90,97
��Ƃ�̍L��,�C�ݕ���,2022/4/24,12:00,93,107
��Ƃ�̍L��,�C�ݕ���,2022/4/24,13:00,111,94
��Ƃ�̍L��,�C�ݕ���,2022/4/24,14:00,83,77
��Ƃ�̍L��,�C�ݕ���,2022/4/24,15:00,124,68
��Ƃ�̍L��,�C�ݕ���,2022/4/24,16:00,39,52
��Ƃ�̍L��,�C�ݕ���,2022/4/24,17:00,53,42
��Ƃ�̍L��,�C�ݕ���,2022/4/24,18:00,28,25
��Ƃ�̍L��,�C�ݕ���,2022/4/24,19:00,21,28
��Ƃ�̍L��,�C�ݕ���,2022/4/24,20:00,9,7
��Ƃ�̍L��,�C�ݕ���,2022/4/24,21:00,11,4
��Ƃ�̍L��,�C�ݕ���,2022/4/24,22:00,7,8
��Ƃ�̍L��,�C�ݕ���,2022/4/24,23:00,5,3
��Ƃ�̍L��,�C�ݕ���,2022/4/25,0:00,0,1
��Ƃ�̍L��,�C�ݕ���,2022/4/25,1:00,2,2
��Ƃ�̍L��,�C�ݕ���,2022/4/25,2:00,0,0
��Ƃ�̍L��,�C�ݕ���,2022/4/25,3:00,0,0
��Ƃ�̍L��,�C�ݕ���,2022/4/25,4:00,4,2
��Ƃ�̍L��,�C�ݕ���,2022/4/25,5:00,2,2
��Ƃ�̍L��,�C�ݕ���,2022/4/25,6:00,7,8
��Ƃ�̍L��,�C�ݕ���,2022/4/25,7:00,19,26
��Ƃ�̍L��,�C�ݕ���,2022/4/25,8:00,27,29
��Ƃ�̍L��,�C�ݕ���,2022/4/25,9:00,41,28
��Ƃ�̍L��,�C�ݕ���,2022/4/25,10:00,65,44
��Ƃ�̍L��,�C�ݕ���,2022/4/25,11:00,82,47
��Ƃ�̍L��,�C�ݕ���,2022/4/25,12:00,92,42
��Ƃ�̍L��,�C�ݕ���,2022/4/25,13:00,60,28
��Ƃ�̍L��,�C�ݕ���,2022/4/25,14:00,62,32
��Ƃ�̍L��,�C�ݕ���,2022/4/25,15:00,69,25
��Ƃ�̍L��,�C�ݕ���,2022/4/25,16:00,51,29
��Ƃ�̍L��,�C�ݕ���,2022/4/25,17:00,63,31
��Ƃ�̍L��,�C�ݕ���,2022/4/25,18:00,44,27
��Ƃ�̍L��,�C�ݕ���,2022/4/25,19:00,30,12
��Ƃ�̍L��,�C�ݕ���,2022/4/25,20:00,12,15
��Ƃ�̍L��,�C�ݕ���,2022/4/25,21:00,19,4
��Ƃ�̍L��,�C�ݕ���,2022/4/25,22:00,7,4
��Ƃ�̍L��,�C�ݕ���,2022/4/25,23:00,1,6
��Ƃ�̍L��,�C�ݕ���,2022/4/26,0:00,2,0
��Ƃ�̍L��,�C�ݕ���,2022/4/26,1:00,1,2
��Ƃ�̍L��,�C�ݕ���,2022/4/26,2:00,0,3
��Ƃ�̍L��,�C�ݕ���,2022/4/26,3:00,3,2
��Ƃ�̍L��,�C�ݕ���,2022/4/26,4:00,2,1
��Ƃ�̍L��,�C�ݕ���,2022/4/26,5:00,1,6
��Ƃ�̍L��,�C�ݕ���,2022/4/26,6:00,6,10
��Ƃ�̍L��,�C�ݕ���,2022/4/26,7:00,21,22
��Ƃ�̍L��,�C�ݕ���,2022/4/26,8:00,34,34
��Ƃ�̍L��,�C�ݕ���,2022/4/26,9:00,46,33
��Ƃ�̍L��,�C�ݕ���,2022/4/26,10:00,64,33
��Ƃ�̍L��,�C�ݕ���,2022/4/26,11:00,62,39
��Ƃ�̍L��,�C�ݕ���,2022/4/26,12:00,72,49
��Ƃ�̍L��,�C�ݕ���,2022/4/26,13:00,86,39
��Ƃ�̍L��,�C�ݕ���,2022/4/26,14:00,54,31
��Ƃ�̍L��,�C�ݕ���,2022/4/26,15:00,55,29
��Ƃ�̍L��,�C�ݕ���,2022/4/26,16:00,61,31